This demonstration page uses our WeatherBlox Daily Observations layout. Learn more.

Left ArrowRight Arrow

Hourly Observations for May 25, 2016

Temp ( °F °C ) Dew Point ( °F °C ) Humidity (%) Winds ( mph kmh ) Pressure ( in mb ) Visibility ( mi km ) Precip ( " mm )
12:53 am 00:53 Clear 57 13.9 53 11.7 87 87 N N/A 30.09 1019 10 16 N/A
1:53 am 01:53 Clear 56 13.3 53 11.7 90 90 N N/A 30.08 1019 10 16 N/A
2:53 am 02:53 Clear 56 13.3 53 11.7 90 90 N N/A 30.09 1019 10 16 N/A
3:53 am 03:53 Clear 56 13.3 53 11.7 90 90 N N/A 30.10 1019 10 16 N/A
4:53 am 04:53 Partly Cloudy 56 13.3 53 11.7 90 90 E 3 6 30.09 1019 10 16 N/A
5:53 am 05:53 Mostly Cloudy 60 15.6 53 11.7 78 78 E 5 7 30.10 1019 10 16 N/A
6:53 am 06:53 Cloudy 62 16.7 55 12.8 78 78 N N/A 30.11 1020 10 16 N/A
7:53 am 07:53 Cloudy 66 18.9 55 12.8 68 68 N N/A 30.11 1020 10 16 N/A
8:53 am 08:53 Partly Cloudy 69 20.6 56 13.3 63 63 N N/A 30.13 1020 10 16 N/A
9:53 am 09:53 Cloudy with Light Rain 69 20.6 62 16.7 78 78 N N/A 30.14 1021 10 16 N/A
10:53 am 10:53 Cloudy with Light Rain 70 21.1 58 14.4 66 66 VRB 3 6 30.14 1021 7 11 N/A
11:53 am 11:53 Partly Cloudy 73 22.8 61 16.1 66 66 ESE 7 11 30.12 1020 10 16 N/A
12:53 pm 12:53 Sunny 78 25.6 60 15.6 54 54 S 8 13 30.12 1020 10 16 N/A
1:53 pm 13:53 Sunny 81 27.2 62 16.7 53 53 VRB 6 9 30.10 1019 10 16 N/A
2:53 pm 14:53 Sunny 82 27.8 62 16.7 51 51 S 8 13 30.09 1019 10 16 N/A
3:53 pm 15:53 Sunny 83 28.3 60 15.6 46 46 VRB 5 7 30.07 1018 10 16 N/A
4:53 pm 16:53 Mostly Sunny 83 28.3 62 16.7 49 49 SSW 12 19 30.06 1018 10 16 N/A
5:53 pm 17:53 Sunny 83 28.3 63 17.2 51 51 SW 10 17 30.04 1017 10 16 N/A
6:53 pm 18:53 Sunny 83 28.3 62 16.7 49 49 S 7 11 30.01 1016 10 16 N/A
7:53 pm 19:53 Sunny 80 26.7 62 16.7 54 54 SW 8 13 30.01 1016 10 16 N/A
8:53 pm 20:53 Sunny 78 25.6 63 17.2 60 60 SSW 6 9 30.03 1017 10 16 N/A
9:53 pm 21:53 Mostly Clear 77 25 64 17.8 64 64 SSW 8 13 30.05 1018 10 16 N/A
10:53 pm 22:53 Mostly Clear 74 23.3 64 17.8 71 71 SSW 6 9 30.06 1018 10 16 N/A
11:53 pm 23:53 Clear 73 22.8 64 17.8 74 74 SSW 5 7 30.05 1018 10 16 N/A

Powered by AerisWeather